Time,TemperatureF,DewpointF,PressureIn,WindDirection,WindDirectionDegrees,WindSpeedMPH,WindSpeedGustMPH,Humidity,HourlyPrecipIn,Conditions,Clouds,dailyrainin,SoftwareType,DateUTC
2013-05-14 00:02:00,37.7,32.4,29.87,SW,221,0.0,0.0,81,0.00,,,0.00,Wunderground v.1.15,2013-05-14 04:02:00,
2013-05-14 00:07:00,37.7,32.4,29.86,SW,221,1.0,2.0,81,0.00,,,0.00,Wunderground v.1.15,2013-05-14 04:07:00,
2013-05-14 00:12:00,37.7,32.7,29.87,SW,221,1.0,1.0,82,0.00,,,0.00,Wunderground v.1.15,2013-05-14 04:12:00,
2013-05-14 00:17:00,37.5,32.2,29.86,SW,221,1.0,1.0,81,0.00,,,0.00,Wunderground v.1.15,2013-05-14 04:17:00,
2013-05-14 00:22:00,37.1,32.1,29.86,SW,221,0.0,1.0,82,0.00,,,0.00,Wunderground v.1.15,2013-05-14 04:22:00,
2013-05-14 00:27:00,36.9,32.2,29.86,SW,221,1.0,1.0,83,0.00,,,0.00,Wunderground v.1.15,2013-05-14 04:27:00,
2013-05-14 00:37:00,36.2,31.5,29.86,SW,221,0.0,1.0,83,0.00,,,0.00,Wunderground v.1.15,2013-05-14 04:37:00,
2013-05-14 00:47:00,35.5,31.4,29.87,SW,221,0.0,1.0,85,0.00,,,0.00,Wunderground v.1.15,2013-05-14 04:47:00,
2013-05-14 00:57:00,35.1,31.6,29.87,SW,221,0.0,2.0,87,0.00,,,0.00,Wunderground v.1.15,2013-05-14 04:57:00,
2013-05-14 01:02:00,35.0,31.5,29.87,SW,221,0.0,0.0,87,0.00,,,0.00,Wunderground v.1.15,2013-05-14 05:02:00,
2013-05-14 01:08:00,34.7,31.2,29.87,SW,221,0.0,0.0,87,0.00,,,0.00,Wunderground v.1.15,2013-05-14 05:08:00,
2013-05-14 01:17:00,34.1,30.9,29.87,SW,221,0.0,0.0,88,0.00,,,0.00,Wunderground v.1.15,2013-05-14 05:17:00,
2013-05-14 01:22:00,33.9,31.0,29.87,SW,221,0.0,0.0,89,0.00,,,0.00,Wunderground v.1.15,2013-05-14 05:22:00,
2013-05-14 01:27:00,33.5,30.6,29.87,SW,221,0.0,0.0,89,0.00,,,0.00,Wunderground v.1.15,2013-05-14 05:27:00,
2013-05-14 01:37:00,33.2,30.6,29.87,SW,221,0.0,0.0,90,0.00,,,0.00,Wunderground v.1.15,2013-05-14 05:37:00,
2013-05-14 01:47:00,33.1,30.8,29.88,SW,221,0.0,0.0,91,0.00,,,0.00,Wunderground v.1.15,2013-05-14 05:47:00,
2013-05-14 01:52:00,33.1,30.8,29.88,SW,221,0.0,0.0,91,0.00,,,0.00,Wunderground v.1.15,2013-05-14 05:52:00,
2013-05-14 02:02:00,33.0,30.7,29.88,SW,221,0.0,0.0,91,0.00,,,0.00,Wunderground v.1.15,2013-05-14 06:02:00,
2013-05-14 02:07:00,33.1,31.0,29.88,SW,221,0.0,0.0,92,0.00,,,0.00,Wunderground v.1.15,2013-05-14 06:07:00,
2013-05-14 02:17:00,32.9,30.8,29.87,SW,221,0.0,0.0,92,0.00,,,0.00,Wunderground v.1.15,2013-05-14 06:17:00,
2013-05-14 02:27:00,32.8,30.7,29.87,SW,221,0.0,1.0,92,0.00,,,0.00,Wunderground v.1.15,2013-05-14 06:27:00,
2013-05-14 02:37:00,32.4,30.3,29.87,SW,221,0.0,0.0,92,0.00,,,0.00,Wunderground v.1.15,2013-05-14 06:37:00,
2013-05-14 02:42:00,32.2,30.1,29.87,SW,221,0.0,0.0,92,0.00,,,0.00,Wunderground v.1.15,2013-05-14 06:42:00,
2013-05-14 02:52:00,32.1,30.3,29.87,SW,221,0.0,1.0,93,0.00,,,0.00,Wunderground v.1.15,2013-05-14 06:52:00,
2013-05-14 02:57:00,32.5,31.0,29.87,SW,221,1.0,1.0,94,0.00,,,0.00,Wunderground v.1.15,2013-05-14 06:57:00,
2013-05-14 03:07:00,32.4,30.6,29.87,SW,221,0.0,1.0,93,0.00,,,0.00,Wunderground v.1.15,2013-05-14 07:07:00,
2013-05-14 03:17:00,32.3,30.5,29.87,SW,221,0.0,0.0,93,0.00,,,0.00,Wunderground v.1.15,2013-05-14 07:17:00,
2013-05-14 03:27:00,32.5,31.0,29.87,SW,221,0.0,0.0,94,0.00,,,0.00,Wunderground v.1.15,2013-05-14 07:27:00,
2013-05-14 03:37:00,32.5,31.0,29.88,SW,221,0.0,0.0,94,0.00,,,0.00,Wunderground v.1.15,2013-05-14 07:37:00,
2013-05-14 03:42:00,32.4,30.9,29.88,SW,221,0.0,0.0,94,0.00,,,0.00,Wunderground v.1.15,2013-05-14 07:42:00,
2013-05-14 03:47:00,32.3,30.8,29.88,SW,221,0.0,0.0,94,0.00,,,0.00,Wunderground v.1.15,2013-05-14 07:47:00,
2013-05-14 03:57:00,31.9,30.4,29.88,SW,221,0.0,1.0,94,0.00,,,0.00,Wunderground v.1.15,2013-05-14 07:57:00,
2013-05-14 04:02:00,31.9,30.4,29.88,SW,221,1.0,1.0,94,0.00,,,0.00,Wunderground v.1.15,2013-05-14 08:02:00,
2013-05-14 04:07:00,31.8,30.3,29.88,SW,221,0.0,1.0,94,0.00,,,0.00,Wunderground v.1.15,2013-05-14 08:07:00,
2013-05-14 04:17:00,31.6,30.1,29.88,SW,221,0.0,1.0,94,0.00,,,0.00,Wunderground v.1.15,2013-05-14 08:17:00,
2013-05-14 04:22:00,31.5,30.0,29.88,SW,221,0.0,0.0,94,0.00,,,0.00,Wunderground v.1.15,2013-05-14 08:22:00,
2013-05-14 04:32:00,31.7,30.4,29.88,SW,221,0.0,1.0,95,0.00,,,0.00,Wunderground v.1.15,2013-05-14 08:32:00,
2013-05-14 04:37:00,32.2,30.9,29.88,SW,221,1.0,1.0,95,0.00,,,0.00,Wunderground v.1.15,2013-05-14 08:37:00,
2013-05-14 04:47:00,32.6,31.3,29.88,SW,221,0.0,1.0,95,0.00,,,0.00,Wunderground v.1.15,2013-05-14 08:47:00,
2013-05-14 04:57:00,33.1,32.1,29.87,SW,221,1.0,1.0,96,0.00,,,0.00,Wunderground v.1.15,2013-05-14 08:57:00,
2013-05-14 05:07:00,33.7,32.7,29.87,SW,221,1.0,1.0,96,0.00,,,0.00,Wunderground v.1.15,2013-05-14 09:07:00,
2013-05-14 05:17:00,33.8,32.8,29.87,SW,221,0.0,0.0,96,0.00,,,0.00,Wunderground v.1.15,2013-05-14 09:17:00,
2013-05-14 05:27:00,34.0,32.7,29.87,SW,221,0.0,0.0,95,0.00,,,0.00,Wunderground v.1.15,2013-05-14 09:27:00,
2013-05-14 05:37:00,34.1,33.1,29.88,SW,221,0.0,0.0,96,0.00,,,0.00,Wunderground v.1.15,2013-05-14 09:37:00,
2013-05-14 05:47:00,34.1,32.8,29.87,SW,221,1.0,1.0,95,0.00,,,0.00,Wunderground v.1.15,2013-05-14 09:47:00,
2013-05-14 05:52:00,34.2,32.9,29.88,SW,221,0.0,0.0,95,0.00,,,0.00,Wunderground v.1.15,2013-05-14 09:52:00,
2013-05-14 06:02:00,34.3,33.0,29.88,SW,221,0.0,1.0,95,0.00,,,0.00,Wunderground v.1.15,2013-05-14 10:02:00,
2013-05-14 06:07:00,34.6,33.3,29.88,SW,221,0.0,1.0,95,0.00,,,0.00,Wunderground v.1.15,2013-05-14 10:07:00,
2013-05-14 06:17:00,35.1,34.1,29.88,SW,221,0.0,2.0,96,0.00,,,0.00,Wunderground v.1.15,2013-05-14 10:17:00,
2013-05-14 06:22:00,35.3,34.3,29.89,SW,221,0.0,1.0,96,0.00,,,0.00,Wunderground v.1.15,2013-05-14 10:22:00,
2013-05-14 06:32:00,35.9,34.9,29.89,SW,221,1.0,1.0,96,0.00,,,0.00,Wunderground v.1.15,2013-05-14 10:32:00,
2013-05-14 06:42:00,36.5,35.5,29.89,SW,221,1.0,1.0,96,0.00,,,0.00,Wunderground v.1.15,2013-05-14 10:42:00,
2013-05-14 06:47:00,36.7,35.7,29.89,SW,221,1.0,1.0,96,0.00,,,0.00,Wunderground v.1.15,2013-05-14 10:47:00,
2013-05-14 06:57:00,37.3,36.0,29.89,ESE,121,0.0,2.0,95,0.00,,,0.00,Wunderground v.1.15,2013-05-14 10:57:00,
2013-05-14 07:07:00,37.8,36.5,29.89,ESE,121,0.0,0.0,95,0.00,,,0.00,Wunderground v.1.15,2013-05-14 11:07:00,
2013-05-14 07:17:00,38.4,36.8,29.89,ESE,121,0.0,1.0,94,0.00,,,0.00,Wunderground v.1.15,2013-05-14 11:17:00,
2013-05-14 07:27:00,39.2,37.6,29.89,South,169,1.0,1.0,94,0.00,,,0.00,Wunderground v.1.15,2013-05-14 11:27:00,
2013-05-14 07:37:00,40.2,38.1,29.90,SSW,205,2.0,2.0,92,0.00,,,0.00,Wunderground v.1.15,2013-05-14 11:37:00,
2013-05-14 07:42:00,40.7,38.3,29.89,SSW,205,2.0,2.0,91,0.00,,,0.00,Wunderground v.1.15,2013-05-14 11:42:00,
2013-05-14 07:47:00,41.0,37.7,29.89,SSW,211,3.0,3.0,88,0.00,,,0.00,Wunderground v.1.15,2013-05-14 11:47:00,
2013-05-14 07:57:00,41.8,38.2,29.89,SSW,210,3.0,4.0,87,0.00,,,0.00,Wunderground v.1.15,2013-05-14 11:57:00,
2013-05-14 08:02:00,42.1,38.2,29.89,SSW,213,2.0,3.0,86,0.00,,,0.00,Wunderground v.1.15,2013-05-14 12:02:00,
2013-05-14 08:08:00,42.5,38.6,29.89,SSW,213,2.0,3.0,86,0.00,,,0.00,Wunderground v.1.15,2013-05-14 12:08:00,
2013-05-14 08:17:00,42.7,38.2,29.89,WSW,237,2.0,3.0,84,0.00,,,0.00,Wunderground v.1.15,2013-05-14 12:17:00,
2013-05-14 08:27:00,43.1,38.6,29.89,SSW,205,2.0,3.0,84,0.00,,,0.00,Wunderground v.1.15,2013-05-14 12:27:00,
2013-05-14 08:32:00,43.7,38.9,29.89,West,268,2.0,3.0,83,0.00,,,0.00,Wunderground v.1.15,2013-05-14 12:32:00,
2013-05-14 08:42:00,44.8,39.6,29.89,SW,222,3.0,3.0,82,0.00,,,0.00,Wunderground v.1.15,2013-05-14 12:42:00,
2013-05-14 08:47:00,45.3,39.5,29.89,SW,215,3.0,4.0,80,0.00,,,0.00,Wunderground v.1.15,2013-05-14 12:47:00,
2013-05-14 08:57:00,46.2,39.4,29.89,WNW,282,3.0,5.0,77,0.00,,,0.00,Wunderground v.1.15,2013-05-14 12:57:00,
2013-05-14 09:07:00,47.5,40.6,29.89,SSW,213,3.0,5.0,77,0.00,,,0.00,Wunderground v.1.15,2013-05-14 13:07:00,
2013-05-14 09:17:00,47.8,38.5,29.88,West,273,3.0,3.0,70,0.00,,,0.00,Wunderground v.1.15,2013-05-14 13:17:00,
2013-05-14 09:27:00,48.7,38.2,29.88,West,273,2.0,2.0,67,0.00,,,0.00,Wunderground v.1.15,2013-05-14 13:27:00,
2013-05-14 09:37:00,49.5,38.6,29.87,WSW,250,2.0,3.0,66,0.00,,,0.00,Wunderground v.1.15,2013-05-14 13:37:00,
2013-05-14 09:47:00,49.4,37.7,29.87,West,261,3.0,3.0,64,0.00,,,0.00,Wunderground v.1.15,2013-05-14 13:47:00,
2013-05-14 09:52:00,49.4,37.3,29.87,SW,222,3.0,4.0,63,0.00,,,0.00,Wunderground v.1.15,2013-05-14 13:52:00,
2013-05-14 09:57:00,49.6,37.5,29.87,SW,216,3.0,5.0,63,0.00,,,0.00,Wunderground v.1.15,2013-05-14 13:57:00,
2013-05-14 10:07:00,50.1,38.0,29.86,WNW,284,3.0,6.0,63,0.00,,,0.00,Wunderground v.1.15,2013-05-14 14:07:00,
2013-05-14 10:17:00,50.6,38.1,29.86,WSW,240,3.0,4.0,62,0.00,,,0.00,Wunderground v.1.15,2013-05-14 14:17:00,
2013-05-14 10:27:00,51.1,38.9,29.87,SW,216,4.0,9.0,63,0.00,,,0.00,Wunderground v.1.15,2013-05-14 14:27:00,
2013-05-14 10:37:00,51.8,37.0,29.86,SW,214,6.0,6.0,57,0.00,,,0.00,Wunderground v.1.15,2013-05-14 14:37:00,
2013-05-14 10:42:00,52.1,37.8,29.86,SW,223,6.0,9.0,58,0.00,,,0.00,Wunderground v.1.15,2013-05-14 14:42:00,
2013-05-14 10:47:00,52.2,37.9,29.86,West,260,5.0,9.0,58,0.00,,,0.00,Wunderground v.1.15,2013-05-14 14:47:00,
2013-05-14 10:57:00,52.7,36.5,29.85,SW,225,4.0,6.0,54,0.00,,,0.00,Wunderground v.1.15,2013-05-14 14:57:00,
2013-05-14 11:07:00,53.2,37.9,29.85,WSW,248,4.0,5.0,56,0.00,,,0.00,Wunderground v.1.15,2013-05-14 15:07:00,
2013-05-14 11:17:00,53.6,36.9,29.86,West,271,3.0,4.0,53,0.00,,,0.00,Wunderground v.1.15,2013-05-14 15:17:00,
2013-05-14 11:27:00,54.6,35.8,29.86,SW,229,4.0,6.0,49,0.00,,,0.00,Wunderground v.1.15,2013-05-14 15:27:00,
2013-05-14 11:32:00,54.2,35.9,29.86,SW,225,4.0,4.0,50,0.00,,,0.00,Wunderground v.1.15,2013-05-14 15:32:00,
2013-05-14 11:37:00,53.9,34.6,29.86,SSW,208,6.0,6.0,48,0.00,,,0.00,Wunderground v.1.15,2013-05-14 15:37:00,
2013-05-14 11:47:00,53.7,35.0,29.85,SSW,213,4.0,9.0,49,0.00,,,0.00,Wunderground v.1.15,2013-05-14 15:47:00,
2013-05-14 11:52:00,53.7,35.0,29.85,South,190,5.0,6.0,49,0.00,,,0.00,Wunderground v.1.15,2013-05-14 15:52:00,
2013-05-14 12:02:00,54.5,35.7,29.85,South,182,3.0,5.0,49,0.00,,,0.00,Wunderground v.1.15,2013-05-14 16:02:00,
2013-05-14 12:07:00,54.6,35.3,29.85,South,191,4.0,5.0,48,0.00,,,0.00,Wunderground v.1.15,2013-05-14 16:07:00,
2013-05-14 12:17:00,55.5,38.6,29.85,SW,222,3.0,4.0,53,0.00,,,0.00,Wunderground v.1.15,2013-05-14 16:17:00,
2013-05-14 12:27:00,55.8,35.9,29.85,WNW,288,3.0,4.0,47,0.00,,,0.00,Wunderground v.1.15,2013-05-14 16:27:00,
2013-05-14 12:37:00,55.6,34.6,29.85,WSW,243,4.0,5.0,45,0.00,,,0.00,Wunderground v.1.15,2013-05-14 16:37:00,
2013-05-14 12:47:00,55.7,35.2,29.84,NE,35,3.0,4.0,46,0.00,,,0.00,Wunderground v.1.15,2013-05-14 16:47:00,
2013-05-14 12:52:00,55.7,34.1,29.84,WNW,295,2.0,2.0,44,0.00,,,0.00,Wunderground v.1.15,2013-05-14 16:52:00,
2013-05-14 13:02:00,56.6,36.0,29.84,WSW,257,4.0,8.0,46,0.00,,,0.00,Wunderground v.1.15,2013-05-14 17:02:00,
2013-05-14 13:07:00,56.8,36.2,29.84,SW,225,5.0,8.0,46,0.00,,,0.00,Wunderground v.1.15,2013-05-14 17:07:00,
2013-05-14 13:17:00,55.8,35.9,29.84,SW,219,7.0,7.0,47,0.00,,,0.00,Wunderground v.1.15,2013-05-14 17:17:00,
2013-05-14 13:27:00,55.9,35.9,29.83,SW,219,3.0,6.0,47,0.00,,,0.00,Wunderground v.1.15,2013-05-14 17:27:00,
2013-05-14 13:32:00,56.9,36.3,29.83,SSW,211,3.0,4.0,46,0.00,,,0.00,Wunderground v.1.15,2013-05-14 17:32:00,
2013-05-14 13:37:00,56.9,36.9,29.83,SW,228,5.0,5.0,47,0.00,,,0.00,Wunderground v.1.15,2013-05-14 17:37:00,
2013-05-14 13:47:00,56.6,33.2,29.83,WSW,255,4.0,6.0,41,0.00,,,0.00,Wunderground v.1.15,2013-05-14 17:47:00,
2013-05-14 13:52:00,56.8,33.9,29.83,West,263,3.0,3.0,42,0.00,,,0.00,Wunderground v.1.15,2013-05-14 17:52:00,
2013-05-14 13:57:00,56.8,33.9,29.83,SW,229,3.0,8.0,42,0.00,,,0.00,Wunderground v.1.15,2013-05-14 17:57:00,
2013-05-14 14:02:00,56.6,33.8,29.83,South,175,4.0,4.0,42,0.00,,,0.00,Wunderground v.1.15,2013-05-14 18:02:00,
2013-05-14 14:08:00,56.9,32.8,29.82,SSW,213,4.0,4.0,40,0.00,,,0.00,Wunderground v.1.15,2013-05-14 18:08:00,
2013-05-14 14:17:00,56.7,31.4,29.82,SW,219,4.0,5.0,38,0.00,,,0.00,Wunderground v.1.15,2013-05-14 18:17:00,
2013-05-14 14:22:00,56.3,34.1,29.82,SSW,201,4.0,4.0,43,0.00,,,0.00,Wunderground v.1.15,2013-05-14 18:22:00,
2013-05-14 14:27:00,56.2,32.2,29.82,WSW,250,3.0,4.0,40,0.00,,,0.00,Wunderground v.1.15,2013-05-14 18:27:00,
2013-05-14 14:37:00,56.8,34.5,29.82,SSW,201,3.0,3.0,43,0.00,,,0.00,Wunderground v.1.15,2013-05-14 18:37:00,
2013-05-14 14:47:00,56.9,33.4,29.81,West,259,3.0,6.0,41,0.00,,,0.00,Wunderground v.1.15,2013-05-14 18:47:00,
2013-05-14 14:57:00,57.1,32.4,29.80,West,260,3.0,3.0,39,0.00,,,0.00,Wunderground v.1.15,2013-05-14 18:57:00,
2013-05-14 15:02:00,57.3,35.6,29.80,SSW,192,3.0,3.0,44,0.00,,,0.00,Wunderground v.1.15,2013-05-14 19:02:00,
2013-05-14 15:07:00,57.3,32.5,29.80,SW,226,3.0,6.0,39,0.00,,,0.00,Wunderground v.1.15,2013-05-14 19:07:00,
2013-05-14 15:17:00,57.6,32.8,29.79,WSW,253,3.0,3.0,39,0.00,,,0.00,Wunderground v.1.15,2013-05-14 19:17:00,
2013-05-14 15:27:00,58.7,35.7,29.78,South,186,3.0,4.0,42,0.00,,,0.00,Wunderground v.1.15,2013-05-14 19:27:00,
2013-05-14 15:32:00,59.0,33.4,29.78,SSW,211,3.0,4.0,38,0.00,,,0.00,Wunderground v.1.15,2013-05-14 19:32:00,
2013-05-14 15:37:00,58.4,31.5,29.78,NW,321,3.0,4.0,36,0.00,,,0.00,Wunderground v.1.15,2013-05-14 19:37:00,
2013-05-14 15:47:00,59.1,35.4,29.77,SW,221,3.0,3.0,41,0.00,,,0.00,Wunderground v.1.15,2013-05-14 19:47:00,
2013-05-14 15:52:00,58.9,33.3,29.77,SW,223,5.0,5.0,38,0.00,,,0.00,Wunderground v.1.15,2013-05-14 19:52:00,
2013-05-14 15:57:00,58.4,34.2,29.76,NW,315,5.0,5.0,40,0.00,,,0.00,Wunderground v.1.15,2013-05-14 19:57:00,
2013-05-14 16:07:00,58.6,32.4,29.76,SW,234,3.0,4.0,37,0.00,,,0.00,Wunderground v.1.15,2013-05-14 20:07:00,
2013-05-14 16:17:00,58.4,33.5,29.76,SSW,196,4.0,6.0,39,0.00,,,0.00,Wunderground v.1.15,2013-05-14 20:17:00,
2013-05-14 16:22:00,58.3,32.8,29.76,SW,217,4.0,4.0,38,0.00,,,0.00,Wunderground v.1.15,2013-05-14 20:22:00,
2013-05-14 17:37:00,57.5,38.5,29.74,ENE,65,2.0,2.0,49,0.00,,,0.00,Wunderground v.1.15,2013-05-14 21:37:00,
2013-05-14 17:47:00,56.9,38.9,29.73,ENE,69,4.0,7.0,51,0.00,,,0.00,Wunderground v.1.15,2013-05-14 21:47:00,
2013-05-14 17:57:00,56.4,39.5,29.73,ENE,71,5.0,7.0,53,0.00,,,0.00,Wunderground v.1.15,2013-05-14 21:57:00,
2013-05-14 18:07:00,57.3,38.3,29.73,East,94,5.0,6.0,49,0.00,,,0.00,Wunderground v.1.15,2013-05-14 22:07:00,
2013-05-14 18:17:00,56.9,38.4,29.73,ENE,63,5.0,8.0,50,0.00,,,0.00,Wunderground v.1.15,2013-05-14 22:17:00,
2013-05-14 18:22:00,56.5,38.1,29.73,ENE,57,5.0,7.0,50,0.00,,,0.00,Wunderground v.1.15,2013-05-14 22:22:00,
2013-05-14 18:27:00,56.0,39.1,29.73,ENE,63,5.0,7.0,53,0.00,,,0.00,Wunderground v.1.15,2013-05-14 22:27:00,
2013-05-14 18:37:00,55.5,38.1,29.73,ENE,70,3.0,4.0,52,0.00,,,0.00,Wunderground v.1.15,2013-05-14 22:37:00,
2013-05-14 18:47:00,55.1,39.2,29.72,ENE,76,4.0,4.0,55,0.00,,,0.00,Wunderground v.1.15,2013-05-14 22:47:00,
2013-05-14 18:57:00,54.6,39.2,29.72,ESE,108,4.0,5.0,56,0.00,,,0.00,Wunderground v.1.15,2013-05-14 22:57:00,
2013-05-14 19:07:00,54.3,39.8,29.72,ENE,57,4.0,4.0,58,0.00,,,0.00,Wunderground v.1.15,2013-05-14 23:07:00,
2013-05-14 19:17:00,54.1,39.6,29.72,ENE,57,3.0,3.0,58,0.00,,,0.00,Wunderground v.1.15,2013-05-14 23:17:00,
2013-05-14 19:22:00,53.9,39.0,29.72,East,87,3.0,6.0,57,0.00,,,0.00,Wunderground v.1.15,2013-05-14 23:22:00,
2013-05-14 19:27:00,53.7,39.3,29.73,East,87,3.0,6.0,58,0.00,,,0.00,Wunderground v.1.15,2013-05-14 23:27:00,
2013-05-14 19:37:00,53.5,39.5,29.72,NE,38,2.0,3.0,59,0.00,,,0.00,Wunderground v.1.15,2013-05-14 23:37:00,
2013-05-14 19:47:00,53.3,39.8,29.73,NE,38,1.0,2.0,60,0.00,,,0.00,Wunderground v.1.15,2013-05-14 23:47:00,
2013-05-14 19:52:00,53.2,39.7,29.73,NE,38,1.0,1.0,60,0.00,,,0.00,Wunderground v.1.15,2013-05-14 23:52:00,
2013-05-14 19:57:00,53.1,39.6,29.73,NE,38,1.0,1.0,60,0.00,,,0.00,Wunderground v.1.15,2013-05-14 23:57:00,
2013-05-14 20:02:00,53.0,39.5,29.73,NE,38,1.0,1.0,60,0.00,,,0.00,Wunderground v.1.15,2013-05-15 00:02:00,
2013-05-14 20:07:00,52.8,39.7,29.73,NE,38,1.0,2.0,61,0.00,,,0.00,Wunderground v.1.15,2013-05-15 00:07:00,
2013-05-14 20:17:00,52.6,39.9,29.73,NE,38,2.0,2.0,62,0.00,,,0.00,Wunderground v.1.15,2013-05-15 00:17:00,
2013-05-14 20:27:00,52.3,39.2,29.74,ENE,65,2.0,4.0,61,0.00,,,0.00,Wunderground v.1.15,2013-05-15 00:27:00,
2013-05-14 20:37:00,52.0,38.5,29.74,East,81,2.0,2.0,60,0.00,,,0.00,Wunderground v.1.15,2013-05-15 00:37:00,
2013-05-14 20:47:00,51.8,38.8,29.73,East,81,2.0,2.0,61,0.00,,,0.00,Wunderground v.1.15,2013-05-15 00:47:00,
2013-05-14 20:52:00,51.6,38.6,29.73,East,88,2.0,2.0,61,0.00,,,0.00,Wunderground v.1.15,2013-05-15 00:52:00,
2013-05-14 21:02:00,51.3,38.7,29.73,ESE,113,2.0,3.0,62,0.00,,,0.00,Wunderground v.1.15,2013-05-15 01:02:00,
2013-05-14 21:07:00,51.2,38.6,29.73,ESE,112,2.0,3.0,62,0.00,,,0.00,Wunderground v.1.15,2013-05-15 01:07:00,
2013-05-14 21:17:00,51.0,38.8,29.73,ESE,112,2.0,2.0,63,0.00,,,0.00,Wunderground v.1.15,2013-05-15 01:17:00,
2013-05-14 21:27:00,50.8,38.7,29.73,ESE,112,3.0,3.0,63,0.00,,,0.00,Wunderground v.1.15,2013-05-15 01:27:00,
2013-05-14 21:37:00,50.7,38.6,29.73,ESE,112,2.0,4.0,63,0.00,,,0.00,Wunderground v.1.15,2013-05-15 01:37:00,
2013-05-14 21:42:00,50.6,38.9,29.73,ESE,112,2.0,2.0,64,0.00,,,0.00,Wunderground v.1.15,2013-05-15 01:42:00,
2013-05-14 21:47:00,50.6,38.9,29.72,ESE,111,2.0,2.0,64,0.00,,,0.00,Wunderground v.1.15,2013-05-15 01:47:00,
2013-05-14 21:57:00,50.4,38.7,29.73,ESE,111,2.0,3.0,64,0.00,,,0.00,Wunderground v.1.15,2013-05-15 01:57:00,
2013-05-14 22:07:00,50.3,39.0,29.72,ESE,111,2.0,2.0,65,0.00,,,0.00,Wunderground v.1.15,2013-05-15 02:07:00,
2013-05-14 22:17:00,50.2,39.3,29.72,ESE,117,2.0,2.0,66,0.00,,,0.00,Wunderground v.1.15,2013-05-15 02:17:00,
2013-05-14 22:27:00,50.0,39.5,29.72,ESE,108,2.0,3.0,67,0.00,,,0.00,Wunderground v.1.15,2013-05-15 02:27:00,
2013-05-14 22:37:00,50.0,39.5,29.71,SE,124,2.0,3.0,67,0.00,,,0.00,Wunderground v.1.15,2013-05-15 02:37:00,
2013-05-14 22:42:00,49.9,39.4,29.71,SE,128,2.0,2.0,67,0.00,,,0.00,Wunderground v.1.15,2013-05-15 02:42:00,
2013-05-14 22:47:00,49.9,39.8,29.71,ESE,115,3.0,3.0,68,0.00,,,0.00,Wunderground v.1.15,2013-05-15 02:47:00,
2013-05-14 22:57:00,49.8,39.7,29.70,SE,136,2.0,3.0,68,0.00,,,0.00,Wunderground v.1.15,2013-05-15 02:57:00,
2013-05-14 23:07:00,49.7,39.6,29.69,SE,144,2.0,3.0,68,0.00,,,0.00,Wunderground v.1.15,2013-05-15 03:07:00,
2013-05-14 23:17:00,49.5,39.7,29.68,ESE,104,1.0,2.0,69,0.00,,,0.00,Wunderground v.1.15,2013-05-15 03:17:00,
2013-05-14 23:27:00,49.1,40.1,29.68,SE,125,1.0,1.0,71,0.00,,,0.00,Wunderground v.1.15,2013-05-15 03:27:00,
2013-05-14 23:37:00,48.8,40.2,29.67,ESE,115,1.0,2.0,72,0.00,,,0.00,Wunderground v.1.15,2013-05-15 03:37:00,
2013-05-14 23:42:00,48.7,40.1,29.67,ESE,115,1.0,1.0,72,0.00,,,0.00,Wunderground v.1.15,2013-05-15 03:42:00,
2013-05-14 23:47:00,48.7,40.1,29.67,ESE,115,1.0,2.0,72,0.00,,,0.00,Wunderground v.1.15,2013-05-15 03:47:00,
2013-05-14 23:57:00,48.9,39.9,29.67,ESE,114,2.0,3.0,71,0.00,,,0.00,Wunderground v.1.15,2013-05-15 03:57:00,